Home > Weather > Ganderkesee > Past weeks

Flag for Germany Weather for the Past 2 Weeks in Ganderkesee, Lower Saxony, Germany

Now
48 °F

Light rain. Broken clouds.


Feels Like: 43 °F
Forecast: 41 / 51 °F
Wind: 14 mph from Southwest

Location: Bremen Airport

Current Time: Apr 29, 2016 at 4:57:41 PM

Latest Report: Apr 29, 2016 at 4:20 PM


Visibility: N/A

Pressure: 29.95 "Hg

Humidity: 76%

Dew Point: 41 °F

Location of GanderkeseeLocation

Historic Weather in Ganderkesee — Graph

°F

Ganderkesee Temperature Yesterday

Maximum temperature yesterday: 48 °F (at 12:50 PM)
Minimum temperature yesterday: 36 °F (at 3:50 AM)
Average temperature yesterday: 41 °F

High & Low Weather Summary for the Past Weeks

 TemperatureHumidityPressure
High59 °F (Apr 14, 3:50 PM)100% (Apr 16, 12:50 AM)30.45 "Hg (Apr 16, 12:50 AM)
Low28 °F (Apr 25, 2:20 AM)41% (Apr 21, 2:20 PM)29.36 "Hg (Apr 26, 12:20 PM)
Average44 °F77%29.88 "Hg
* Reported Apr 14 3:20 PM — Apr 29 3:20 PM, Ganderkesee, Weather by CustomWeather, © 2016

Note: Actual official high and low records may vary slightly from our data, if they occured in-between our weather recording intervals... More about our weather records

Advertising

Ganderkesee Weather History for the Previous 24 Hours

Scroll right to see more
 ConditionsComfort  
Time TempWeatherWind HumidityBarometerVisibility
3:20 PM
Fri, Apr 29
48 °FLight rain. Mostly cloudy.10 mph82%29.95 "HgN/A
2:50 PM48 °FRain. Mostly cloudy.22 mph71%29.92 "Hg6 mi
2:20 PM52 °FLight rain. Broken clouds.16 mph62%29.92 "HgN/A
1:50 PM50 °FLight rain. Partly sunny.18 mph67%29.92 "HgN/A
1:20 PM52 °FLight rain. Partly sunny.20 mph58%29.89 "HgN/A
12:50 PM54 °FPartly sunny.21 mph51%29.89 "HgN/A
12:20 PM52 °FPartly sunny.22 mph54%29.89 "HgN/A
11:50 AM52 °FBroken clouds.21 mph54%29.89 "HgN/A
11:20 AM52 °FPartly sunny.18 mph58%29.89 "HgN/A
10:50 AM50 °FPartly sunny.20 mph62%29.89 "HgN/A
10:20 AM48 °FSunny.20 mph66%29.89 "Hg10 mi
9:50 AM48 °FSunny.20 mph66%29.89 "Hg10 mi
9:20 AM46 °FSunny.16 mph71%29.89 "Hg10 mi
8:50 AM43 °FSunny.14 mph81%29.92 "Hg10 mi
8:20 AM41 °FSunny.13 mph81%29.92 "Hg10 mi
7:50 AM39 °FSunny.10 mph87%29.92 "Hg10 mi
7:20 AM39 °FSunny.12 mph87%29.92 "Hg10 mi
6:50 AM37 °FClear.8 mph87%29.92 "Hg10 mi
6:20 AM36 °FClear.7 mph93%29.92 "Hg10 mi
5:50 AM36 °FClear.6 mph93%29.92 "Hg6 mi
5:20 AM36 °FClear.8 mph93%29.92 "Hg6 mi
4:20 AM34 °FClear.7 mph93%29.95 "Hg10 mi
3:50 AM34 °FClear.5 mph93%29.95 "Hg10 mi
3:20 AM34 °FClear.7 mph93%29.95 "Hg10 mi
2:50 AM34 °FClear.6 mph93%29.95 "Hg10 mi
2:20 AM34 °FClear.3 mph93%29.95 "Hg10 mi
1:50 AM34 °FClear.3 mph100%29.95 "Hg10 mi
1:20 AM34 °FClear.3 mph100%29.95 "Hg10 mi
12:50 AM34 °FClear.3 mph100%29.95 "Hg10 mi
12:20 AM36 °FPassing clouds.5 mph93%29.95 "HgN/A
11:50 PM
Thu, Apr 28
36 °FPassing clouds.5 mph93%29.98 "HgN/A
11:20 PM36 °FPassing clouds.7 mph93%29.95 "HgN/A
10:50 PM36 °FPassing clouds.6 mph93%29.98 "HgN/A
10:20 PM37 °FPassing clouds.5 mph93%29.98 "HgN/A
9:50 PM37 °FPassing clouds.3 mph93%29.98 "HgN/A
9:20 PM39 °FPartly sunny.6 mph87%29.98 "HgN/A
8:50 PM41 °FPartly sunny.12 mph87%29.98 "HgN/A
8:20 PM41 °FScattered clouds.6 mph87%29.95 "HgN/A
7:50 PM41 °FPartly sunny.3 mph81%29.95 "HgN/A
7:20 PM41 °FSprinkles. Partly sunny.14 mph81%29.95 "HgN/A
6:50 PM43 °FScattered showers. Scattered clouds.15 mph76%29.95 "HgN/A
6:20 PM46 °FScattered showers. Scattered clouds.6 mph66%29.92 "HgN/A
5:50 PM48 °FSprinkles. Scattered clouds.7 mph58%29.92 "HgN/A
5:20 PM48 °FScattered showers. Partly sunny.6 mph58%29.92 "HgN/A
4:50 PM46 °FPartly sunny.6 mph66%29.92 "HgN/A
4:20 PM46 °FScattered showers. Scattered clouds.5 mph71%29.95 "HgN/A
Weather by CustomWeather, © 2016

See weather overviewHow to use our weather pages